Time,TemperatureF,DewpointF,PressureIn,WindDirection,WindDirectionDegrees,WindSpeedMPH,WindSpeedGustMPH,Humidity,HourlyPrecipIn,Conditions,Clouds,dailyrainin,SoftwareType,DateUTC
2013-06-29 00:08:00,88.0,63.3,29.76,East,90,4.7,-999.0,44,-99.99,,,0.00,Acu-Link.com,2013-06-29 05:08:00,
2013-06-29 00:23:00,87.6,64.2,29.76,East,90,5.3,-999.0,46,-99.99,,,0.00,Acu-Link.com,2013-06-29 05:23:00,
2013-06-29 00:38:00,86.9,64.2,29.77,NE,45,3.2,-999.0,47,-99.99,,,0.00,Acu-Link.com,2013-06-29 05:38:00,
2013-06-29 00:53:00,86.4,64.4,29.76,ESE,112,4.2,-999.0,48,-99.99,,,0.00,Acu-Link.com,2013-06-29 05:53:00,
2013-06-29 01:09:00,85.6,64.8,29.76,East,90,5.3,-999.0,50,-99.99,,,0.00,Acu-Link.com,2013-06-29 06:09:00,
2013-06-29 01:24:00,85.1,64.9,29.76,East,90,2.7,-999.0,51,-99.99,,,0.00,Acu-Link.com,2013-06-29 06:24:00,
2013-06-29 01:40:00,84.4,64.8,29.76,East,90,3.7,-999.0,52,-99.99,,,0.00,Acu-Link.com,2013-06-29 06:40:00,
2013-06-29 01:55:00,83.8,64.8,29.77,ENE,67,1.7,-999.0,53,-99.99,,,0.00,Acu-Link.com,2013-06-29 06:55:00,
2013-06-29 02:10:00,83.1,64.7,29.77,ENE,67,1.1,-999.0,54,-99.99,,,0.00,Acu-Link.com,2013-06-29 07:10:00,
2013-06-29 02:25:00,82.4,64.1,29.78,East,90,0.0,-999.0,54,-99.99,,,0.00,Acu-Link.com,2013-06-29 07:25:00,
2013-06-29 02:41:00,81.3,65.1,29.78,ENE,67,0.0,-999.0,58,-99.99,,,0.00,Acu-Link.com,2013-06-29 07:41:00,
2013-06-29 02:56:00,80.6,64.9,29.78,NE,45,0.0,-999.0,59,-99.99,,,0.00,Acu-Link.com,2013-06-29 07:56:00,
2013-06-29 03:13:00,80.4,65.2,29.77,East,90,0.0,-999.0,60,-99.99,,,0.00,Acu-Link.com,2013-06-29 08:13:00,
2013-06-29 03:28:00,80.2,65.5,29.78,ENE,67,2.7,-999.0,61,-99.99,,,0.00,Acu-Link.com,2013-06-29 08:28:00,
2013-06-29 03:43:00,80.1,65.4,29.78,NE,45,2.2,-999.0,61,-99.99,,,0.00,Acu-Link.com,2013-06-29 08:43:00,
2013-06-29 03:59:00,79.9,65.7,29.79,NE,45,2.7,-999.0,62,-99.99,,,0.00,Acu-Link.com,2013-06-29 08:59:00,
2013-06-29 04:14:00,80.2,66.0,29.77,ENE,67,4.2,-999.0,62,-99.99,,,0.00,Acu-Link.com,2013-06-29 09:14:00,
2013-06-29 04:29:00,79.5,65.8,29.77,WSW,247,2.2,-999.0,63,-99.99,,,0.00,Acu-Link.com,2013-06-29 09:29:00,
2013-06-29 04:44:00,78.6,65.8,29.78,ESE,112,0.0,-999.0,65,-99.99,,,0.00,Acu-Link.com,2013-06-29 09:44:00,
2013-06-29 04:59:00,77.7,65.9,29.77,NNW,337,0.0,-999.0,67,-99.99,,,0.00,Acu-Link.com,2013-06-29 09:59:00,
2013-06-29 05:14:00,76.8,65.4,29.78,NW,315,0.0,-999.0,68,-99.99,,,0.00,Acu-Link.com,2013-06-29 10:14:00,
2013-06-29 05:29:00,76.3,65.4,29.79,West,270,0.0,-999.0,69,-99.99,,,0.00,Acu-Link.com,2013-06-29 10:29:00,
2013-06-29 05:45:00,76.3,65.8,29.78,NNW,337,0.0,-999.0,70,-99.99,,,0.00,Acu-Link.com,2013-06-29 10:45:00,
2013-06-29 06:00:00,76.1,65.6,29.78,West,270,0.0,-999.0,70,-99.99,,,0.00,Acu-Link.com,2013-06-29 11:00:00,
2013-06-29 06:15:00,75.9,65.4,29.79,NW,315,0.0,-999.0,70,-99.99,,,0.00,Acu-Link.com,2013-06-29 11:15:00,
2013-06-29 06:31:00,75.7,64.8,29.79,NE,45,0.0,-999.0,69,-99.99,,,0.00,Acu-Link.com,2013-06-29 11:31:00,
2013-06-29 06:46:00,75.4,65.3,29.80,NW,315,0.0,-999.0,71,-99.99,,,0.00,Acu-Link.com,2013-06-29 11:46:00,
2013-06-29 07:01:00,75.0,65.3,29.80,SW,225,0.0,-999.0,72,-99.99,,,0.00,Acu-Link.com,2013-06-29 12:01:00,
2013-06-29 07:17:00,75.0,65.7,29.80,West,270,0.0,-999.0,73,-99.99,,,0.00,Acu-Link.com,2013-06-29 12:17:00,
2013-06-29 07:32:00,75.9,66.2,29.79,West,270,1.1,-999.0,72,-99.99,,,0.00,Acu-Link.com,2013-06-29 12:32:00,
2013-06-29 07:47:00,77.0,67.3,29.79,ENE,67,0.0,-999.0,72,-99.99,,,0.00,Acu-Link.com,2013-06-29 12:47:00,
2013-06-29 08:03:00,78.4,67.8,29.80,ENE,67,0.0,-999.0,70,-99.99,,,0.00,Acu-Link.com,2013-06-29 13:03:00,
2013-06-29 08:18:00,80.8,67.5,29.80,ESE,112,2.2,-999.0,64,-99.99,,,0.00,Acu-Link.com,2013-06-29 13:18:00,
2013-06-29 08:33:00,83.3,67.4,29.81,East,90,0.0,-999.0,59,-99.99,,,0.00,Acu-Link.com,2013-06-29 13:33:00,
2013-06-29 08:48:00,87.3,66.9,29.80,SE,135,3.2,-999.0,51,-99.99,,,0.00,Acu-Link.com,2013-06-29 13:48:00,
2013-06-29 09:03:00,89.8,66.8,29.80,East,90,4.7,-999.0,47,-99.99,,,0.00,Acu-Link.com,2013-06-29 14:03:00,
2013-06-29 09:19:00,92.1,67.0,29.81,ENE,67,2.7,-999.0,44,-99.99,,,0.00,Acu-Link.com,2013-06-29 14:19:00,
2013-06-29 09:34:00,94.1,66.8,29.80,WSW,247,2.2,-999.0,41,-99.99,,,0.00,Acu-Link.com,2013-06-29 14:34:00,
2013-06-29 09:49:00,97.2,67.3,29.80,ESE,112,1.7,-999.0,38,-99.99,,,0.00,Acu-Link.com,2013-06-29 14:49:00,
2013-06-29 10:05:00,97.7,67.0,29.79,North,0,2.2,-999.0,37,-99.99,,,0.00,Acu-Link.com,2013-06-29 15:05:00,
2013-06-29 10:20:00,101.5,67.8,29.79,ESE,112,4.2,-999.0,34,-99.99,,,0.00,Acu-Link.com,2013-06-29 15:20:00,
2013-06-29 10:35:00,101.3,66.8,29.79,ESE,112,2.7,-999.0,33,-99.99,,,0.00,Acu-Link.com,2013-06-29 15:35:00,
2013-06-29 10:50:00,103.5,65.9,29.78,SE,135,2.7,-999.0,30,-99.99,,,0.00,Acu-Link.com,2013-06-29 15:50:00,
2013-06-29 11:06:00,104.0,64.4,29.78,East,90,6.3,-999.0,28,-99.99,,,0.00,Acu-Link.com,2013-06-29 16:06:00,
2013-06-29 11:21:00,102.4,63.0,29.78,East,90,4.2,-999.0,28,-99.99,,,0.00,Acu-Link.com,2013-06-29 16:21:00,
2013-06-29 11:36:00,100.6,61.5,29.79,NE,45,4.7,-999.0,28,-99.99,,,0.00,Acu-Link.com,2013-06-29 16:36:00,
2013-06-29 11:52:00,99.7,61.7,29.77,NNE,22,3.7,-999.0,29,-99.99,,,0.00,Acu-Link.com,2013-06-29 16:52:00,
2013-06-29 12:07:00,102.6,62.1,29.77,ESE,112,5.8,-999.0,27,-99.99,,,0.00,Acu-Link.com,2013-06-29 17:07:00,
2013-06-29 12:23:00,101.5,60.2,29.78,North,0,6.8,-999.0,26,-99.99,,,0.00,Acu-Link.com,2013-06-29 17:23:00,
2013-06-29 12:38:00,103.3,60.6,29.77,ESE,112,7.3,-999.0,25,-99.99,,,0.00,Acu-Link.com,2013-06-29 17:38:00,
2013-06-29 12:53:00,103.6,61.9,29.77,ESE,112,7.3,-999.0,26,-99.99,,,0.00,Acu-Link.com,2013-06-29 17:53:00,
2013-06-29 13:08:00,102.9,59.1,29.78,NE,45,4.7,-999.0,24,-99.99,,,0.00,Acu-Link.com,2013-06-29 18:08:00,
2013-06-29 13:24:00,102.9,57.9,29.75,ESE,112,3.2,-999.0,23,-99.99,,,0.00,Acu-Link.com,2013-06-29 18:24:00,
2013-06-29 13:41:00,104.4,56.6,29.75,ESE,112,7.3,-999.0,21,-99.99,,,0.00,Acu-Link.com,2013-06-29 18:41:00,
2013-06-29 13:56:00,103.6,54.6,29.74,ESE,112,5.8,-999.0,20,-99.99,,,0.00,Acu-Link.com,2013-06-29 18:56:00,
2013-06-29 14:11:00,106.0,57.9,29.74,ENE,67,5.8,-999.0,21,-99.99,,,0.00,Acu-Link.com,2013-06-29 19:11:00,
2013-06-29 14:26:00,107.1,60.1,29.73,ESE,112,5.8,-999.0,22,-99.99,,,0.00,Acu-Link.com,2013-06-29 19:26:00,
2013-06-29 14:41:00,102.0,58.3,29.72,NE,45,2.7,-999.0,24,-99.99,,,0.00,Acu-Link.com,2013-06-29 19:41:00,
2013-06-29 14:57:00,100.4,59.2,29.72,NNW,337,5.3,-999.0,26,-99.99,,,0.00,Acu-Link.com,2013-06-29 19:57:00,
2013-06-29 15:13:00,100.8,60.6,29.72,NE,45,3.7,-999.0,27,-99.99,,,0.00,Acu-Link.com,2013-06-29 20:13:00,
2013-06-29 15:28:00,102.2,61.8,29.71,East,90,7.3,-999.0,27,-99.99,,,0.00,Acu-Link.com,2013-06-29 20:28:00,
2013-06-29 15:43:00,103.5,60.7,29.70,ENE,67,8.3,-999.0,25,-99.99,,,0.00,Acu-Link.com,2013-06-29 20:43:00,
2013-06-29 15:58:00,102.7,60.1,29.70,East,90,15.5,-999.0,25,-99.99,,,0.00,Acu-Link.com,2013-06-29 20:58:00,
2013-06-29 16:14:00,100.2,59.1,29.69,ENE,67,5.3,-999.0,26,-99.99,,,0.00,Acu-Link.com,2013-06-29 21:14:00,
2013-06-29 16:29:00,101.8,60.4,29.69,NNE,22,3.7,-999.0,26,-99.99,,,0.00,Acu-Link.com,2013-06-29 21:29:00,
2013-06-29 16:44:00,101.5,59.1,29.70,ENE,67,5.8,-999.0,25,-99.99,,,0.00,Acu-Link.com,2013-06-29 21:44:00,
2013-06-29 16:59:00,101.5,59.1,29.68,ENE,67,8.3,-999.0,25,-99.99,,,0.00,Acu-Link.com,2013-06-29 21:59:00,
2013-06-29 17:15:00,102.9,59.1,29.67,East,90,4.2,-999.0,24,-99.99,,,0.00,Acu-Link.com,2013-06-29 22:15:00,
2013-06-29 17:30:00,104.4,59.1,29.67,East,90,3.2,-999.0,23,-99.99,,,0.00,Acu-Link.com,2013-06-29 22:30:00,
2013-06-29 17:45:00,104.9,59.5,29.66,ESE,112,6.8,-999.0,23,-99.99,,,0.00,Acu-Link.com,2013-06-29 22:45:00,
2013-06-29 18:00:00,106.0,59.2,29.67,NE,45,4.7,-999.0,22,-99.99,,,0.00,Acu-Link.com,2013-06-29 23:00:00,
2013-06-29 18:15:00,102.2,57.3,29.66,NE,45,5.8,-999.0,23,-99.99,,,0.00,Acu-Link.com,2013-06-29 23:15:00,
2013-06-29 18:31:00,101.1,57.6,29.67,East,90,10.4,-999.0,24,-99.99,,,0.00,Acu-Link.com,2013-06-29 23:31:00,
2013-06-29 18:46:00,101.1,58.7,29.66,East,90,5.8,-999.0,25,-99.99,,,0.00,Acu-Link.com,2013-06-29 23:46:00,
2013-06-29 19:01:00,101.5,59.1,29.66,East,90,4.7,-999.0,25,-99.99,,,0.00,Acu-Link.com,2013-06-30 00:01:00,
2013-06-29 19:17:00,101.1,58.7,29.66,East,90,4.2,-999.0,25,-99.99,,,0.00,Acu-Link.com,2013-06-30 00:17:00,
2013-06-29 19:33:00,99.7,58.6,29.66,NE,45,4.2,-999.0,26,-99.99,,,0.00,Acu-Link.com,2013-06-30 00:33:00,
2013-06-29 19:48:00,99.3,59.4,29.65,NNE,22,4.2,-999.0,27,-99.99,,,0.00,Acu-Link.com,2013-06-30 00:48:00,
2013-06-29 20:03:00,98.4,58.6,29.64,NE,45,3.7,-999.0,27,-99.99,,,0.00,Acu-Link.com,2013-06-30 01:03:00,
2013-06-29 20:19:00,97.2,59.6,29.65,NE,45,4.7,-999.0,29,-99.99,,,0.00,Acu-Link.com,2013-06-30 01:19:00,
2013-06-29 20:34:00,95.4,58.0,29.66,ESE,112,3.7,-999.0,29,-99.99,,,0.00,Acu-Link.com,2013-06-30 01:34:00,
2013-06-29 20:49:00,94.3,58.1,29.67,NE,45,2.7,-999.0,30,-99.99,,,0.00,Acu-Link.com,2013-06-30 01:49:00,
2013-06-29 21:04:00,92.7,58.5,29.66,East,90,5.3,-999.0,32,-99.99,,,0.00,Acu-Link.com,2013-06-30 02:04:00,
2013-06-29 21:20:00,91.6,60.0,29.66,East,90,5.8,-999.0,35,-99.99,,,0.00,Acu-Link.com,2013-06-30 02:20:00,
2013-06-29 21:35:00,90.7,60.8,29.68,ESE,112,6.3,-999.0,37,-99.99,,,0.00,Acu-Link.com,2013-06-30 02:35:00,
2013-06-29 21:50:00,90.0,60.9,29.68,East,90,5.3,-999.0,38,-99.99,,,0.00,Acu-Link.com,2013-06-30 02:50:00,
2013-06-29 22:05:00,89.4,61.1,29.69,ESE,112,3.7,-999.0,39,-99.99,,,0.00,Acu-Link.com,2013-06-30 03:05:00,
2013-06-29 22:20:00,88.9,60.7,29.70,ENE,67,3.2,-999.0,39,-99.99,,,0.00,Acu-Link.com,2013-06-30 03:20:00,
2013-06-29 22:36:00,88.5,60.3,29.72,ENE,67,5.3,-999.0,39,-99.99,,,0.00,Acu-Link.com,2013-06-30 03:36:00,
2013-06-29 22:51:00,88.3,60.2,29.72,NE,45,4.7,-999.0,39,-99.99,,,0.00,Acu-Link.com,2013-06-30 03:51:00,
2013-06-29 23:06:00,87.8,59.7,29.73,NNE,22,6.8,-999.0,39,-99.99,,,0.00,Acu-Link.com,2013-06-30 04:06:00,
2013-06-29 23:21:00,87.4,59.4,29.74,NE,45,7.3,-999.0,39,-99.99,,,0.00,Acu-Link.com,2013-06-30 04:21:00,
2013-06-29 23:37:00,86.9,58.9,29.74,SSE,157,4.2,-999.0,39,-99.99,,,0.00,Acu-Link.com,2013-06-30 04:37:00,
2013-06-29 23:52:00,86.0,58.1,29.75,ESE,112,8.3,-999.0,39,-99.99,,,0.00,Acu-Link.com,2013-06-30 04:52:00,